Flag for Reunion (French) Weather past 2 weeks in Saint-Denis, Reunion (French)

Now
79 °F

Passing clouds.


Feels Like: 82 °F
Forecast: 77 / 84 °F
Wind: 9 mph from Southeast

Location: Saint-Denis / Gillot


UV Index: 5 (Moderate)

Visibility: N/A


Pressure: 30.01 "Hg

Humidity: 84%

Dew point: 73 °F

Location of Saint-DenisLocation

Historic Weather in Saint-Denis

°F

Saint-Denis temperature yesterday

Maximum temperature yesterday: 86 °F (at 2:00 PM)
Minimum temperature yesterday: 73 °F (at 2:00 AM)
Average temperature yesterday: 80 °F

Past Weeks' High & Low Weather Summary

 TemperatureHumidityPressure
High86 °F (Apr 3, 11:30 AM)94% (Apr 14, 11:00 PM)30.09 "Hg (Apr 14, 11:00 PM)
Low66 °F (Apr 6, 4:30 AM)45% (Apr 4, 3:04 PM)29.77 "Hg (Apr 7, 3:00 PM)
Average77 °F71%29.95 "Hg
* Reported Apr 3 1:30 AM — Apr 18 1:00 AM, Saint-Denis, Weather by CustomWeather, © 2014

Note: Actual official high and low records may vary slightly from our data, if they occured in-between our weather recording intervals... More about our weather records

Advertising

Historic Weather Conditions — Data for Previous 24 hours

 ConditionsComfort  
Time TempWeatherWind HumidityBarometerVisibility
1:00 AM
Apr 18
81 °FPassing clouds.13 mph79%30.04 "HgN/A
12:30 AM81 °FPassing clouds.14 mph79%30.04 "HgN/A
12:00 AM81 °FPassing clouds.15 mph79%30.04 "HgN/A
11:30 PM
Apr 17
81 °FPassing clouds.14 mph74%30.04 "HgN/A
11:00 PM81 °FPassing clouds.13 mph74%30.04 "HgN/A
10:30 PM81 °FPassing clouds.13 mph74%30.04 "HgN/A
10:00 PM81 °FPassing clouds.9 mph74%30.04 "HgN/A
9:00 PM81 °FPassing clouds.13 mph74%30.04 "HgN/A
8:30 PM81 °FPassing clouds.15 mph74%30.04 "HgN/A
8:00 PM81 °FPassing clouds.16 mph74%30.01 "HgN/A
7:30 PM81 °FPassing clouds.14 mph74%30.01 "HgN/A
7:00 PM81 °FPassing clouds.14 mph79%29.98 "HgN/A
6:30 PM81 °FPassing clouds.16 mph79%29.98 "HgN/A
6:00 PM82 °FPassing clouds.17 mph74%29.98 "HgN/A
5:30 PM82 °FPassing clouds.15 mph70%29.98 "HgN/A
5:00 PM84 °FPartly sunny.13 mph66%29.95 "HgN/A
4:30 PM84 °FPartly sunny.15 mph66%29.95 "HgN/A
4:00 PM84 °FPartly sunny.16 mph70%29.95 "HgN/A
3:30 PM84 °FPartly sunny.20 mph74%29.95 "HgN/A
3:00 PM84 °FPartly sunny.21 mph74%29.95 "HgN/A
2:30 PM84 °FPartly sunny.20 mph70%29.95 "HgN/A
2:00 PM86 °FPartly sunny.20 mph70%29.95 "HgN/A
1:30 PM84 °FPartly sunny.17 mph70%29.95 "HgN/A
1:00 PM84 °FPartly sunny.20 mph70%29.95 "HgN/A
12:30 PM84 °FPartly sunny.20 mph66%29.98 "HgN/A
12:00 PM84 °FPartly sunny.22 mph70%29.98 "HgN/A
11:30 AM84 °FPartly sunny.21 mph74%29.98 "HgN/A
11:00 AM84 °FPartly sunny.20 mph70%30.01 "HgN/A
10:30 AM84 °FPartly sunny.21 mph70%30.01 "HgN/A
10:00 AM82 °FPartly sunny.21 mph70%30.01 "HgN/A
9:30 AM84 °FPartly sunny.18 mph66%30.01 "HgN/A
9:00 AM82 °FPartly sunny.18 mph66%30.01 "HgN/A
8:30 AM81 °FPartly sunny.15 mph74%30.01 "HgN/A
8:00 AM79 °FPartly sunny.12 mph79%29.98 "HgN/A
7:30 AM77 °FScattered clouds.12 mph83%29.98 "HgN/A
7:00 AM75 °FScattered clouds.8 mph83%29.98 "HgN/A
6:30 AM75 °FScattered clouds.7 mph83%29.98 "HgN/A
6:00 AM75 °FScattered clouds.6 mph83%29.98 "HgN/A
5:30 AM73 °FPassing clouds.7 mph89%29.98 "HgN/A
5:00 AM73 °FPassing clouds.6 mph89%29.95 "HgN/A
4:30 AM73 °FClear.6 mph83%29.95 "HgN/A
4:00 AM73 °FClear.5 mph89%29.95 "HgN/A
3:30 AM73 °FClear.5 mph89%29.95 "HgN/A
3:00 AM73 °FClear.5 mph83%29.95 "HgN/A
2:30 AM73 °FClear.7 mph89%29.95 "HgN/A
2:00 AM73 °FClear.5 mph89%29.98 "HgN/A
Weather by CustomWeather, © 2014

See weather overview